EW2919 Weather Reports


time (UTC)temp
C
wind
direction
speed
KPH
gust
KPH
rain 1hr
cm
rain 24hr
cm
rain mn
cm
humidity
%
barometer
mb
20260906111522 21 343 0.0 3.2 0.00 0.18 0.00 95 1014.1
20260906110026 21 28 0.0 3.2 0.00 0.18 0.00 96 1013.8
20260906104512 21 46 0.0 3.2 0.00 0.18 0.00 96 1013.8
20260906103620 21 56 0.0 3.2 0.00 0.18 0.00 96 1013.6
20260906103603 21 61 0.0 3.2 0.00 0.18 0.00 96 1013.4
20260906100026 21 299 0.0 3.2 0.00 0.18 0.00 96 1013.3
20260906094534 21 46 0.0 1.6 0.00 0.18 0.00 96 1013.1
20260906093010 21 46 0.0 3.2 0.00 0.18 0.00 96 1013.1
20260906091524 21 360 0.0 3.2 0.00 0.18 0.00 96 1012.9
20260906090021 21 315 0.0 3.2 0.00 0.18 0.00 96 1012.8
20260906084530 21 42 0.0 4.8 0.00 0.18 0.00 96 1012.7
20260906083039 21 37 0.0 3.2 0.00 0.18 0.00 96 1012.5
20260906081529 21 84 0.0 3.2 0.00 0.18 0.00 96 1012.2
20260906080016 21 22 0.0 3.2 0.00 0.18 0.00 96 1012.3
20260906074524 21 29 0.0 3.2 0.00 0.18 0.00 96 1012.3
20260906073003 21 40 0.0 1.6 0.00 0.18 0.00 95 1012.4
20260906071504 21 40 0.0 0.0 0.00 0.18 0.00 95 1012.5
20260906070003 21 40 0.0 0.0 0.00 0.18 0.00 95 1012.5
20260906064506 21 40 0.0 0.0 0.00 0.18 0.00 95 1012.7
20260906063005 21 40 0.0 0.0 0.00 0.18 0.00 95 1012.6
20260906061508 21 40 0.0 0.0 0.00 0.18 0.00 95 1012.6
20260906060008 21 40 0.0 0.0 0.00 0.18 0.00 95 1012.7
20260906054508 21 40 0.0 0.0 0.00 0.18 0.00 95 1012.8
20260906053030 21 40 0.0 0.0 0.00 0.18 0.00 94 1012.8
20260906051532 21 40 0.0 0.0 0.00 0.18 0.00 94 1012.8
20260906050042 21 40 0.0 3.2 0.00 0.18 0.00 94 1013.0
20260906044516 21 40 0.0 0.0 0.00 0.18 0.00 94 1013.3
20260906043025 21 40 0.0 1.6 0.00 0.18 0.00 94 1013.2
20260906041529 21 40 0.0 1.6 0.00 0.18 0.00 93 1013.3
20260906040037 21 40 0.0 3.2 0.00 0.18 0.00 93 1013.3
20260906034514 21 40 0.0 3.2 0.00 0.18 0.18 92 1013.5
20260906033024 22 40 0.0 3.2 0.00 0.18 0.18 92 1013.4
20260906031529 22 40 0.0 3.2 0.00 0.18 0.18 92 1013.4
20260906030032 22 40 0.0 3.2 0.00 0.18 0.18 91 1013.2
20260906024531 22 40 0.0 3.2 0.00 0.18 0.18 91 1013.3
20260906023024 22 327 0.0 3.2 0.00 0.18 0.18 91 1013.1
20260906021526 22 325 1.6 4.8 0.00 0.18 0.18 91 1012.7
20260906020031 22 325 0.0 3.2 0.00 0.18 0.18 90 1012.4
20260906014534 22 325 0.0 3.2 0.00 0.18 0.18 91 1012.3
20260906013033 22 325 0.0 3.2 0.00 0.18 0.18 90 1012.2
20260906011511 23 325 0.0 3.2 0.00 0.18 0.18 90 1012.2
20260906010004 23 325 0.0 1.6 0.00 0.18 0.18 89 1012.2
20260906004508 23 325 0.0 3.2 0.00 0.18 0.18 88 1011.9
20260906003008 23 325 0.0 3.2 0.00 0.18 0.18 87 1011.9
20260906001508 24 325 0.0 3.2 0.00 0.18 0.18 86 1011.9
20260906000019 25 325 0.0 3.2 0.00 0.18 0.18 85 1011.8
20260905234504 25 325 0.0 3.2 0.00 0.18 0.18 84 1011.5
20260905233020 25 325 0.0 1.6 0.00 0.18 0.18 84 1011.4
20260905231511 26 325 0.0 3.2 0.00 0.33 0.18 83 1011.3
20260905230011 26 325 0.0 3.2 0.00 0.33 0.18 83 1011.2
20260905224504 26 302 0.0 4.8 0.00 0.33 0.18 81 1011.2
20260905223008 26 182 0.0 3.2 0.00 0.33 0.18 82 1011.3
20260905221510 26 220 0.0 3.2 0.00 0.76 0.18 84 1011.6
20260905220011 26 209 0.0 3.2 0.00 1.55 0.18 87 1011.6
20260905214514 26 209 0.0 3.2 0.00 2.16 0.18 88 1011.8
20260905213004 26 192 0.0 3.2 0.00 2.16 0.18 87 1011.8
20260905211512 26 261 0.0 4.8 0.00 2.16 0.18 86 1011.8
20260905210014 25 297 0.0 3.2 0.00 2.16 0.18 89 1011.9
20260905204514 24 307 1.6 3.2 0.00 2.16 0.18 93 1011.8
20260905203015 23 351 0.0 3.2 0.00 2.16 0.18 94 1011.6
20260905201508 23 264 0.0 3.2 0.00 2.16 0.18 93 1011.8
20260905200044 23 262 1.6 3.2 0.03 2.16 0.18 93 1012.2
20260905194521 23 254 0.0 3.2 0.03 2.16 0.18 92 1011.8
20260905193026 23 139 0.0 3.2 0.15 2.16 0.18 92 1011.6
20260905191515 23 272 0.0 3.2 0.15 2.16 0.18 91 1011.2
20260905190014 23 275 0.0 3.2 0.13 2.13 0.15 88 1011.6
20260905184523 25 60 1.6 6.4 0.13 2.13 0.15 81 1012.3
20260905183024 27 330 1.6 12.9 0.00 2.01 0.03 68 1012.5
20260905181523 30 69 8.0 22.5 0.00 2.01 0.03 60 1012.4
20260905180018 34 50 1.6 4.8 0.00 2.01 0.03 55 1012.0
20260905174528 34 211 1.6 4.8 0.00 2.01 0.03 56 1011.9
20260905173017 34 137 1.6 6.4 0.00 2.01 0.03 57 1012.0
20260905171517 33 50 0.0 4.8 0.00 2.01 0.03 58 1012.5
20260905170020 33 315 1.6 6.4 0.00 2.01 0.03 53 1013.1
20260905164518 34 304 1.6 8.0 0.00 2.01 0.03 55 1013.3
20260905163021 33 278 3.2 6.4 0.00 2.01 0.03 57 1013.4
20260905161520 33 300 0.0 11.3 0.00 2.01 0.03 59 1013.5
20260905160039 33 42 0.0 8.0 0.00 2.01 0.03 62 1013.6
20260905154525 32 275 1.6 6.4 0.00 2.01 0.03 63 1013.9
20260905153018 31 109 1.6 4.8 0.00 2.01 0.03 67 1013.9
20260905151520 31 99 0.0 4.8 0.03 2.01 0.03 65 1014.0
20260905150025 30 326 1.6 4.8 0.03 2.01 0.03 69 1014.2
20260905144530 28 153 0.0 3.2 0.03 2.01 0.03 78 1014.2
20260905143020 27 150 1.6 3.2 0.03 2.01 0.03 89 1014.1
20260905141536 25 210 1.6 4.8 0.00 1.98 0.00 91 1014.1
20260905140023 24 254 0.0 3.2 0.00 1.98 0.00 97 1014.2
20260905134513 23 320 0.0 3.2 0.00 1.98 0.00 97 1014.1
20260905133013 23 322 0.0 3.2 0.00 1.98 0.00 97 1014.0
20260905131535 22 322 0.0 3.2 0.00 1.98 0.00 97 1014.1
20260905130027 22 286 0.0 3.2 0.00 1.98 0.00 97 1014.2
20260905124506 22 286 0.0 3.2 0.00 1.98 0.00 97 1014.2
20260905123011 21 286 0.0 0.0 0.00 1.98 0.00 97 1014.3
20260905121516 21 286 0.0 0.0 0.00 1.98 0.00 97 1014.2
20260905120023 21 286 0.0 0.0 0.00 1.98 0.00 97 1014.0
20260905114545 21 286 0.0 3.2 0.00 1.98 0.00 96 1013.9
20260905113007 21 286 0.0 0.0 0.00 1.98 0.00 96 1013.7